Wind_Speed
9 10 11 12 13 14 15 16 17 18 19 20 21 22 24 25 26 27 27 28 29 29 30 31 31 32 32 33 34 35 35 35 35 36 38 39 40 40 41 41 41 42 43
11 12 13 14 15 16 17 18 19 20 21 23 24 25 26 27 28 29 29 30 31 32 32 33 33 33 34 35 35 36 37 37 37 37 39 41 41 42 42 43 43 43 44
15 16 17 17 18 19 20 20 21 23 24 25 26 27 28 29 30 31 31 32 33 33 34 34 35 35 36 36 36 37 37 37 37 37 38 40 41 42 43 43 43 44 44
18 19 20 20 21 22 22 23 24 25 26 27 28 29 31 32 32 33 33 34 34 35 35 36 36 37 37 37 37 37 37 37 37 36 37 38 40 41 42 43 43 44 45
20 22 23 23 24 24 25 26 26 27 29 30 31 32 33 34 34 35 35 35 36 36 37 37 38 38 38 38 37 37 37 36 36 36 36 37 38 39 40 41 42 43 44
23 24 25 26 27 27 28 29 29 30 31 32 33 34 35 35 36 36 36 36 37 37 38 39 39 39 39 38 38 37 37 36 36 36 36 36 36 38 38 39 39 41 42
25 27 28 29 30 30 31 31 32 33 34 34 35 36 37 38 37 37 37 38 38 38 39 39 40 40 39 39 38 37 37 37 36 36 35 35 36 37 37 37 38 39 39
28 30 31 32 32 33 33 34 35 36 37 37 38 39 40 40 39 39 40 39 39 39 40 41 41 41 40 39 38 37 37 37 36 35 34 34 35 36 36 37 38 38 39
31 32 33 34 34 35 36 37 38 39 39 40 40 41 41 42 42 42 42 41 41 41 42 42 42 41 40 39 37 37 37 37 36 35 33 33 34 35 35 36 36 37 37
33 34 35 36 37 38 39 40 41 42 42 42 42 43 43 43 44 44 44 43 43 44 44 44 43 42 40 38 37 36 36 36 36 34 34 33 34 35 35 35 36 36 36
36 36 37 38 39 40 41 43 44 45 45 45 45 44 44 45 45 46 46 46 45 45 45 44 43 42 40 38 37 36 35 35 34 34 34 34 34 35 36 36 36 36 36
38 39 40 40 42 43 44 45 46 47 47 47 47 47 47 47 48 48 48 48 48 47 46 45 43 42 40 38 37 36 36 34 34 33 33 33 33 34 34 35 35 36 36
41 42 43 44 45 46 47 48 48 49 49 49 49 49 49 50 50 50 50 51 50 48 46 45 43 41 40 38 37 36 35 34 33 32 32 32 32 32 33 33 34 35 35
45 45 46 47 48 49 50 51 51 51 52 51 52 52 52 53 53 53 52 52 51 49 46 44 42 40 39 37 36 35 34 33 32 31 31 31 31 31 31 32 33 34 34
47 48 49 50 51 52 52 53 54 54 54 55 55 55 56 55 55 55 54 53 51 49 46 43 41 40 38 37 35 34 33 32 31 31 30 30 30 30 30 31 32 33 33
48 49 51 52 53 54 55 56 56 57 57 58 58 58 58 57 56 56 55 53 50 49 45 42 40 39 37 35 34 32 32 31 30 30 29 29 29 30 30 31 31 32 32
50 52 53 55 56 57 58 58 58 59 60 60 61 61 59 57 56 55 53 51 49 47 44 41 39 38 36 34 32 31 30 30 29 29 29 28 28 29 29 30 30 30 31
53 55 56 58 59 60 60 61 62 62 62 62 62 61 59 58 56 54 52 50 47 44 42 40 38 36 35 33 31 30 29 28 28 28 28 27 28 28 28 28 29 29 30
57 58 59 60 61 62 63 64 64 64 64 63 62 60 58 56 54 52 49 46 44 42 40 39 37 35 33 31 29 29 28 28 28 28 27 27 27 27 27 27 28 28 29
59 60 61 62 63 64 64 64 64 64 63 61 59 57 54 52 49 47 45 43 41 39 37 35 34 32 31 30 29 29 28 28 28 28 28 28 27 27 26 26 26 27 28
61 62 63 64 63 63 63 63 62 60 58 56 53 50 48 46 44 42 40 38 36 34 33 32 30 29 29 29 28 29 28 28 27 27 27 27 26 26 25 25 26 26 27
63 63 62 62 61 60 59 57 55 53 51 49 46 43 40 39 37 35 33 33 32 31 30 29 27 27 27 27 27 27 27 27 27 26 25 25 25 25 25 26 26 26 27
60 59 58 57 56 54 52 50 48 46 44 41 38 36 35 33 31 30 29 28 28 27 27 26 25 26 26 26 26 26 27 27 26 26 25 25 25 25 25 25 25 26 26
54 53 52 52 50 49 47 45 43 40 38 34 32 31 29 28 28 27 26 25 24 24 23 23 24 24 24 25 25 25 25 25 25 25 25 25 25 25 25 25 25 25 25
49 49 48 47 45 44 41 40 37 34 30 27 25 25 25 24 23 22 22 21 21 21 21 21 21 22 23 23 24 24 25 25 24 24 24 24 24 24 24 24 25 24 24
44 44 44 42 40 38 36 34 30 26 23 21 20 19 20 19 18 17 17 18 18 18 19 20 20 21 21 22 22 23 24 24 23 23 23 23 23 23 22 22 23 23 23
Wind_Direction
307 311 314 316 317 317 318 319 318 316 314 314 314 314 314 315 315 314 313 310 309 307 305 303 302 302 299 295 292 289 285 280 275 271 269 266 263 260 256 253 250 249 246
300 303 305 309 311 311 312 313 313 313 312 311 311 312 312 313 313 312 311 309 308 307 305 304 303 302 299 296 294 290 287 283 278 273 270 267 264 261 258 255 252 250 248
298 299 301 303 305 307 307 307 307 306 306 308 309 310 311 312 312 311 310 308 307 306 305 304 303 302 300 298 296 292 289 285 280 275 271 268 265 261 258 255 252 250 248
296 297 298 299 301 302 303 304 304 304 303 304 306 308 308 309 310 310 309 309 308 307 306 305 304 303 302 299 297 294 290 286 282 277 273 269 266 263 259 256 253 250 247
292 293 294 296 298 300 301 301 302 303 303 303 305 306 306 307 308 308 308 308 307 307 307 306 306 304 302 300 297 294 290 287 283 279 275 270 266 263 260 256 253 251 248
289 290 291 293 295 296 298 299 300 301 303 304 303 305 306 307 308 308 308 308 307 307 307 307 306 303 302 300 296 293 290 287 283 279 276 271 266 263 261 258 254 251 249
288 289 290 292 293 295 296 298 298 300 303 304 304 305 305 306 307 308 308 308 307 307 307 307 306 304 302 299 295 292 289 286 282 278 275 270 266 263 261 258 255 252 249
288 289 290 292 293 294 295 296 298 300 301 303 303 304 305 306 306 306 307 307 307 306 307 307 306 304 301 299 295 292 289 285 281 278 274 270 267 265 262 259 256 253 250
289 290 291 292 292 294 295 296 298 299 300 302 303 303 304 304 304 305 305 306 306 307 307 306 305 302 300 298 295 291 288 284 280 277 274 270 267 265 263 259 256 253 250
289 290 290 291 292 293 295 296 297 298 299 300 301 302 302 303 303 304 304 305 306 307 307 305 303 301 299 296 293 290 286 282 279 277 274 270 267 264 262 260 257 253 250
289 289 289 290 291 292 293 294 296 297 298 299 300 300 301 301 301 302 303 304 305 306 305 304 303 300 297 294 291 289 285 282 279 276 273 271 268 264 262 260 258 254 251
288 288 288 289 290 291 292 293 294 295 296 297 298 298 299 299 299 301 301 302 303 304 303 302 300 298 295 292 290 287 284 281 278 275 273 271 269 265 263 261 258 255 252
289 289 289 290 290 291 291 292 293 294 295 295 296 297 298 297 298 299 299 300 301 301 301 299 297 295 292 290 288 285 283 280 277 275 274 271 268 266 264 261 258 256 253
290 290 290 290 291 291 291 292 292 293 293 293 294 295 296 296 296 296 297 298 298 298 297 295 294 293 291 288 286 284 281 280 277 275 273 271 268 266 264 261 258 256 253
290 290 290 290 290 291 291 291 292 292 292 292 293 293 293 293 293 293 294 294 294 294 293 291 291 290 290 288 285 282 280 279 277 274 272 271 268 266 264 262 259 257 254
289 289 289 290 290 290 290 290 290 290 290 290 290 291 290 290 289 289 290 290 290 290 289 288 288 288 287 286 284 281 280 278 275 273 272 270 268 266 265 263 261 257 254
289 289 289 289 289 289 289 289 289 289 289 289 289 289 288 286 286 286 286 286 285 284 284 284 285 285 285 284 281 280 279 278 275 274 273 271 269 267 265 263 261 257 253
291 291 290 290 290 290 290 290 290 289 288 287 287 286 285 284 283 282 282 282 281 280 280 281 282 283 282 281 279 279 278 277 275 274 273 271 270 268 266 263 260 257 253
293 293 293 293 292 292 291 291 290 289 288 287 286 285 283 281 280 278 278 278 277 276 277 278 278 279 279 278 278 278 278 277 275 274 272 270 270 269 267 262 259 257 255
296 296 295 295 294 293 292 292 291 289 288 287 285 284 281 279 277 275 275 274 272 272 272 275 276 276 276 276 277 278 278 277 276 274 272 270 270 268 263 260 259 256 254
298 298 297 296 295 295 294 293 292 290 289 287 285 283 279 276 274 272 271 269 268 268 269 271 273 274 276 276 276 277 277 276 276 274 272 270 267 264 260 259 259 257 254
299 299 298 298 297 297 296 295 294 292 290 287 283 280 276 274 271 267 266 264 264 264 266 268 271 273 275 276 277 277 277 276 275 273 272 269 266 262 260 260 259 257 255
300 300 300 299 299 299 298 297 296 294 292 288 280 275 269 265 263 262 262 261 261 262 263 265 270 272 273 276 277 278 278 277 274 271 270 268 266 263 261 260 259 257 255
302 303 303 302 301 300 299 298 297 294 291 286 277 270 264 261 259 260 261 261 260 261 264 267 270 272 274 276 278 280 281 278 275 271 269 267 264 261 260 259 259 257 254
305 306 306 305 304 303 301 300 298 292 287 283 275 266 260 257 257 258 256 256 258 261 264 268 272 274 276 278 279 280 282 281 276 272 268 265 263 260 259 258 257 255 253
309 310 310 309 308 307 305 302 298 291 284 278 270 264 256 251 252 252 251 252 255 259 264 270 274 276 279 281 282 283 283 282 278 272 268 264 261 259 259 258 255 253 251
Height
5857 5856 5854 5853 5851 5849 5847 5845 5843 5841 5839 5836 5834 5831 5828 5825 5822 5819 5815 5812 5809 5806 5803 5800 5797 5794 5791 5789 5786 5784 5783 5782 5781 5780 5778 5778 5779 5780 5781 5783 5785 5787 5789
5854 5852 5851 5849 5847 5845 5843 5841 5838 5836 5833 5831 5828 5825 5822 5819 5816 5812 5809 5805 5802 5798 5795 5792 5788 5785 5782 5779 5776 5773 5771 5769 5769 5768 5766 5765 5766 5767 5768 5770 5772 5774 5777
5850 5848 5847 5845 5843 5841 5838 5836 5833 5831 5828 5825 5822 5819 5816 5812 5809 5805 5802 5798 5794 5790 5786 5783 5779 5776 5772 5769 5765 5762 5759 5757 5756 5755 5754 5753 5753 5753 5755 5757 5759 5762 5764
5845 5844 5842 5840 5838 5835 5833 5830 5828 5825 5822 5819 5815 5812 5809 5805 5801 5798 5794 5790 5786 5781 5777 5773 5769 5765 5761 5758 5754 5751 5748 5745 5743 5742 5741 5740 5740 5740 5742 5743 5745 5748 5751
5840 5838 5836 5834 5832 5829 5826 5824 5821 5818 5815 5811 5808 5804 5801 5797 5793 5789 5785 5781 5777 5772 5768 5763 5759 5754 5750 5746 5743 5739 5736 5734 5731 5730 5729 5728 5727 5727 5728 5730 5732 5734 5737
5834 5832 5830 5827 5825 5822 5819 5816 5813 5810 5806 5803 5799 5796 5792 5788 5784 5780 5776 5772 5767 5762 5758 5753 5748 5744 5739 5735 5731 5728 5725 5722 5720 5718 5717 5716 5715 5714 5715 5717 5719 5721 5724
5827 5825 5822 5820 5817 5815 5811 5808 5804 5801 5798 5794 5790 5786 5782 5778 5774 5770 5766 5762 5757 5752 5747 5742 5737 5732 5728 5724 5720 5716 5713 5710 5708 5706 5705 5704 5703 5703 5703 5705 5706 5708 5711
5819 5817 5814 5812 5809 5806 5803 5799 5796 5792 5788 5784 5781 5776 5772 5768 5764 5760 5756 5751 5746 5741 5736 5731 5726 5721 5716 5712 5708 5705 5701 5698 5696 5694 5694 5692 5691 5691 5691 5692 5693 5696 5698
5810 5808 5805 5803 5800 5796 5793 5789 5786 5782 5778 5774 5770 5766 5761 5757 5752 5748 5744 5739 5735 5729 5724 5719 5714 5709 5704 5700 5697 5694 5690 5687 5684 5683 5682 5681 5680 5679 5679 5680 5681 5683 5685
5801 5799 5796 5792 5789 5786 5782 5778 5775 5771 5767 5763 5759 5755 5750 5746 5741 5736 5732 5727 5723 5718 5712 5707 5702 5697 5692 5688 5685 5682 5679 5675 5673 5672 5670 5669 5668 5668 5667 5668 5669 5671 5673
5791 5789 5785 5782 5778 5775 5771 5767 5763 5759 5755 5751 5747 5742 5738 5734 5729 5724 5719 5714 5710 5705 5699 5694 5689 5684 5680 5676 5672 5670 5667 5664 5662 5660 5659 5658 5657 5656 5656 5657 5658 5659 5661
5780 5777 5774 5770 5766 5762 5758 5754 5750 5746 5742 5738 5733 5729 5725 5720 5716 5711 5705 5701 5696 5691 5686 5681 5676 5671 5668 5664 5661 5657 5655 5653 5651 5649 5648 5646 5645 5645 5645 5645 5646 5648 5650
5767 5764 5760 5757 5753 5749 5745 5741 5736 5732 5728 5724 5719 5715 5711 5706 5701 5697 5692 5687 5682 5677 5673 5668 5663 5659 5655 5652 5649 5646 5643 5641 5639 5638 5637 5635 5634 5634 5634 5634 5635 5636 5638
5754 5750 5746 5742 5738 5734 5730 5726 5722 5718 5713 5709 5705 5701 5696 5692 5687 5682 5677 5673 5668 5663 5659 5655 5650 5646 5643 5640 5637 5634 5632 5630 5628 5627 5626 5624 5623 5623 5623 5623 5624 5625 5627
5740 5736 5732 5728 5723 5719 5715 5711 5706 5702 5697 5693 5689 5684 5680 5676 5672 5666 5662 5658 5654 5649 5645 5642 5638 5634 5631 5628 5625 5623 5621 5619 5617 5616 5615 5614 5613 5612 5612 5612 5613 5614 5616
5727 5722 5718 5713 5708 5704 5699 5696 5690 5686 5681 5676 5671 5667 5663 5659 5655 5650 5645 5642 5638 5634 5631 5628 5625 5622 5619 5616 5614 5612 5610 5608 5606 5605 5604 5603 5603 5602 5602 5602 5602 5603 5605
5712 5707 5702 5697 5692 5687 5682 5678 5674 5670 5664 5658 5653 5649 5644 5640 5637 5633 5629 5625 5622 5620 5617 5615 5612 5610 5607 5605 5603 5601 5599 5597 5596 5595 5594 5593 5593 5592 5592 5592 5592 5593 5594
5695 5690 5685 5679 5674 5669 5663 5658 5653 5648 5645 5640 5634 5629 5624 5621 5618 5614 5611 5609 5607 5605 5603 5601 5599 5598 5596 5594 5592 5591 5589 5588 5586 5585 5584 5583 5582 5582 5582 5582 5582 5583 5584
5677 5672 5666 5660 5654 5648 5642 5637 5631 5626 5621 5617 5613 5609 5604 5601 5599 5596 5594 5593 5592 5590 5589 5588 5587 5586 5584 5583 5582 5580 5579 5578 5577 5576 5575 5574 5573 5572 5572 5572 5572 5573 5574
5658 5652 5645 5639 5633 5626 5620 5614 5608 5603 5598 5594 5591 5587 5584 5581 5580 5579 5578 5578 5577 5577 5576 5576 5575 5574 5573 5572 5571 5570 5569 5568 5567 5566 5565 5564 5563 5563 5563 5563 5563 5563 5564
5638 5631 5624 5618 5611 5604 5598 5592 5586 5581 5576 5572 5570 5567 5564 5563 5563 5563 5563 5563 5564 5563 5564 5564 5564 5563 5563 5562 5561 5560 5559 5558 5556 5555 5555 5554 5553 5553 5553 5554 5554 5554 5555
5618 5611 5604 5597 5590 5583 5577 5570 5565 5560 5556 5553 5551 5549 5547 5547 5547 5548 5549 5550 5551 5552 5553 5554 5553 5553 5553 5552 5551 5550 5549 5548 5546 5546 5545 5544 5544 5544 5544 5544 5545 5545 5546
5598 5591 5584 5577 5570 5564 5558 5552 5547 5543 5539 5536 5534 5533 5533 5533 5534 5536 5537 5538 5540 5541 5543 5543 5544 5544 5543 5543 5542 5540 5539 5538 5537 5536 5535 5535 5534 5534 5535 5535 5535 5536 5537
5581 5574 5567 5561 5554 5548 5542 5537 5532 5528 5524 5521 5520 5520 5520 5522 5523 5525 5527 5529 5531 5533 5534 5534 5535 5534 5534 5533 5532 5531 5530 5528 5527 5526 5525 5525 5525 5525 5525 5526 5527 5527 5528
5566 5559 5552 5546 5539 5533 5528 5523 5518 5514 5512 5510 5509 5509 5511 5513 5515 5517 5519 5521 5523 5525 5526 5526 5526 5526 5526 5525 5524 5522 5521 5519 5518 5517 5516 5516 5516 5516 5516 5517 5518 5518 5519
5554 5547 5540 5533 5526 5521 5515 5511 5506 5504 5502 5501 5501 5502 5504 5506 5508 5510 5513 5515 5516 5518 5519 5519 5519 5519 5518 5517 5515 5514 5512 5510 5509 5508 5507 5507 5507 5507 5508 5508 5509 5510 5511